Content
SEND FEEDBACK

Daily
Averages
Monthly
Summary
Thailand

BANGKOK, THAILAND


Home > Asia > Thailand
Elevation: 66 feet     Latitude: 13 44N     Longitude: 100 34E

WEATHER
 
SELECT A DAY
Number of Records: 235,382;   Date Range: 7/1/96 - 7/29/14
 
SHARE

PRINT THIS DATA

[ ← Previous Day ]
WEATHER ALMANAC - OCTOBER 29, 2013
[ Next Day → ]
[ °C ]   °F
Weather ElementAverageHighLow
Temperature85.9 °F93.2 °F (3:30 pm)78.8 °F (5:00 am)
Dewpoint73.5 °F75.2 °F (12:30 am)69.8 °F (3:30 pm)
Humidity67 %84 % (4:00 am)38 % (1:00 pm)
Barometer29.91 in29.98 in (8:00 am)29.83 in (3:00 pm)
Wind Speed4.7 mph13.8 mph (5:00 am)
Weather ElementAverage
Visibility4.7 mi
Wind DirectionS (183.9 °)

Weather ElementTotal
Precipitation---
Cooling Degree Days21 (Base 65)
Growing Degree Days36 (Base 50)
Averaged from 51 records on October 29, 2013
WEATHER CONDITIONS BREAKOUT
WIND DIRECTION BREAKOUT
WEATHER BY HOUR - OCTOBER 29, 2013
[ °C ]   °F
Local TimeTemperatureDewpointHumidityBarometerVisibilityWind DirectionWind SpeedGust SpeedPrecipitationEventsConditions
12:30 AM84.2 °F75.2 °F74 %29.92 in3.7 miWest (270°)3.5 mphMostly Cloudy
1:00 AM83.0 °F75.0 °F72 %29.94 in4.0 miWest (270°)3.5 mphMist
1:00 AM84.2 °F75.2 °F74 %29.92 in3.7 miWest (270°)3.5 mphMostly Cloudy
1:30 AM84.2 °F75.2 °F74 %29.92 in3.7 miWest (270°)3.5 mphMostly Cloudy
2:00 AM82.4 °F75.2 °F79 %29.89 in3.7 miWNW (300°)3.5 mphMostly Cloudy
2:30 AM82.4 °F75.2 °F79 %29.89 in3.7 miWNW (300°)3.5 mphMostly Cloudy
3:00 AM82.4 °F75.2 °F79 %29.89 in3.7 miWNW (300°)3.5 mphMostly Cloudy
3:30 AM82.4 °F75.2 °F79 %29.89 in3.1 miCalmMostly Cloudy
4:00 AM80.6 °F75.2 °F84 %29.89 in3.1 miEast (100°)3.5 mphMostly Cloudy
4:30 AM80.6 °F75.2 °F84 %29.92 in5.0 miEast (100°)9.2 mphMostly Cloudy
5:00 AM78.8 °F73.4 °F83 %29.92 in5.0 miEast (90°)13.8 mphMostly Cloudy
5:30 AM78.8 °F73.4 °F83 %29.92 in4.3 miSSE (150°)8.1 mphMostly Cloudy
6:00 AM80.6 °F75.2 °F84 %29.92 in3.7 miSE (130°)4.6 mphMostly Cloudy
6:30 AM80.6 °F75.2 °F84 %29.95 in3.1 miSSE (150°)4.6 mphMostly Cloudy
7:00 AM80.0 °F74.0 °F76 %29.96 in4.0 miSSE (160°)3.5 mphMist
7:00 AM80.6 °F73.4 °F79 %29.95 in3.7 miSSE (160°)3.5 mphMostly Cloudy
7:30 AM80.6 °F73.4 °F79 %29.95 in4.3 miSE (140°)3.5 mphMostly Cloudy
8:00 AM82.4 °F73.4 °F74 %29.98 in5.0 miSSE (150°)3.5 mphMostly Cloudy
8:30 AM84.2 °F73.4 °F70 %29.95 in5.0 miSSE (150°)3.5 mphMostly Cloudy
9:00 AM86.0 °F75.2 °F70 %29.98 in5.0 miCalmMostly Cloudy
9:30 AM86.0 °F75.2 °F70 %29.98 in5.0 miSouth (170°)4.6 mphMostly Cloudy
10:00 AM87.8 °F73.4 °F62 %29.98 in5.0 miSouth (170°)4.6 mphMostly Cloudy
10:30 AM87.8 °F73.4 °F62 %29.95 in5.0 miSSE (160°)9.2 mphMostly Cloudy
11:00 AM89.6 °F73.4 °F59 %29.95 in5.0 miEast (100°)2.3 mphMostly Cloudy
11:30 AM89.6 °F71.6 °F55 %29.92 in5.0 miSouth (170°)6.9 mphMostly Cloudy
12:00 PM91.4 °F71.6 °F52 %29.92 in5.0 miEast (90°)6.9 mphMostly Cloudy
12:30 PM91.4 °F73.4 °F55 %29.92 in5.0 miEast (90°)8.1 mphMostly Cloudy
1:00 PM92.0 °F70.0 °F38 %29.92 in6.0 miEast (90°)6.9 mphHaze
1:00 PM91.4 °F73.4 °F55 %29.92 in5.6 miEast (90°)6.9 mphMostly Cloudy
1:30 PM91.4 °F73.4 °F55 %29.89 in5.6 miESE (110°)9.2 mphMostly Cloudy
2:00 PM91.4 °F73.4 °F55 %29.86 in5.6 miEast (90°)3.5 mphMostly Cloudy
2:30 PM91.4 °F71.6 °F52 %29.86 in5.6 miEast (90°)5.8 mphMostly Cloudy
3:00 PM91.4 °F71.6 °F52 %29.83 in5.6 miEast (100°)4.6 mphMostly Cloudy
3:30 PM93.2 °F69.8 °F46 %29.83 in6.2 miNNW (340°)3.5 mphMostly Cloudy
4:00 PM93.2 °F69.8 °F46 %29.83 in6.2 miSouth (180°)3.5 mphMostly Cloudy
4:30 PM93.2 °F69.8 °F46 %29.83 in6.2 miWest (260°)4.6 mphMostly Cloudy
5:00 PM89.6 °F71.6 °F55 %29.83 in6.2 miSSW (210°)3.5 mphMostly Cloudy
5:30 PM89.6 °F71.6 °F55 %29.86 in6.2 miNW (320°)4.6 mphMostly Cloudy
6:00 PM89.6 °F71.6 °F55 %29.86 in5.6 miNW (320°)8.1 mphMostly Cloudy
6:30 PM87.8 °F73.4 °F62 %29.86 in5.0 miNW (320°)8.1 mphMostly Cloudy
7:00 PM87.0 °F73.0 °F55 %29.89 in5.0 miNW (320°)4.6 mphHaze
7:00 PM86.0 °F73.4 °F66 %29.89 in5.0 miNW (320°)4.6 mphMostly Cloudy
7:30 PM86.0 °F73.4 °F66 %29.89 in5.0 miNW (320°)3.5 mphMostly Cloudy
8:00 PM86.0 °F73.4 °F66 %29.92 in5.0 miWNW (300°)6.9 mphMostly Cloudy
8:30 PM86.0 °F73.4 °F66 %29.92 in4.3 miWNW (300°)5.8 mphMostly Cloudy
9:00 PM84.2 °F73.4 °F70 %29.95 in4.3 miWNW (290°)5.8 mphMostly Cloudy
9:30 PM84.2 °F73.4 °F70 %29.95 in4.3 miWNW (300°)3.5 mphScattered Clouds
10:00 PM84.2 °F75.2 °F74 %29.92 in4.3 miCalmScattered Clouds
10:30 PM82.4 °F75.2 °F79 %29.92 in4.3 miCalmMostly Cloudy
11:00 PM82.4 °F75.2 °F79 %29.92 in4.3 miCalmMostly Cloudy
11:30 PM82.4 °F75.2 °F79 %29.92 in4.3 miWNW (300°)2.3 mphMostly Cloudy
Hourly data recorded from VTBD, located miles away from Bangkok, Thailand







STORIES FROM OUR PARTNERS